SCP
0 0 0 0 0 0 0 0 0 0 0 0 0 0 0 0 0 0 1 2 2 2 2 2 3 3 2 2 2 2 1 1 1 1 1 1 1 1 1 1 1 1 1 1 1 1 0 0 0
0 0 0 0 0 0 0 0 0 0 0 0 0 0 0 1 1 1 1 2 2 2 2 2 3 3 3 2 2 2 1 1 1 1 1 1 1 1 1 1 1 1 1 1 1 1 0 0 0
0 0 0 0 0 0 0 0 0 0 0 0 0 0 1 1 1 1 2 3 3 3 2 3 3 3 3 2 2 2 2 1 1 1 1 1 1 1 1 1 1 1 1 1 1 1 1 0 0
0 0 0 0 0 0 0 0 0 0 0 0 0 1 1 1 1 1 3 4 4 3 3 3 4 4 3 3 2 2 2 2 1 1 1 1 1 1 1 1 1 1 1 1 1 1 1 1 1
0 0 0 0 0 0 0 0 0 0 0 0 1 1 2 2 2 3 4 4 4 3 3 4 4 4 4 3 2 2 2 2 1 1 1 1 1 1 1 1 1 1 1 1 1 1 1 1 1
1 1 0 0 0 0 0 0 0 0 0 0 1 2 2 2 3 4 4 4 4 3 4 4 4 4 4 3 3 2 2 2 2 1 2 1 1 1 1 1 1 1 1 1 1 1 1 1 1
1 1 0 0 0 0 0 0 0 0 0 0 1 2 2 3 3 4 4 4 4 4 4 5 4 4 4 4 3 3 2 2 2 2 2 1 1 1 1 1 1 1 1 1 1 1 1 1 1
1 1 0 0 0 0 0 0 0 0 0 0 1 2 2 3 4 4 5 5 4 4 4 5 5 5 4 4 4 3 2 2 2 2 2 1 1 1 1 1 1 1 0 1 1 1 1 1 1
1 0 0 0 0 0 0 0 0 0 0 0 1 1 3 3 4 5 6 6 5 4 4 5 6 6 5 5 4 3 3 2 2 1 1 1 1 1 1 1 1 0 0 0 1 1 1 1 1
1 0 0 0 0 0 0 0 0 0 0 0 1 2 3 5 5 6 7 7 6 5 4 5 6 6 6 5 5 4 3 2 2 1 1 1 1 1 1 1 1 0 0 0 1 1 1 1 1
1 0 0 0 0 0 0 0 0 0 0 0 1 3 5 5 5 6 7 8 8 6 5 5 7 7 6 6 5 5 4 3 2 2 2 2 1 1 1 1 1 1 0 0 0 0 0 1 1
0 0 0 0 0 0 0 0 0 0 0 0 2 4 6 6 5 5 6 9 9 7 6 6 7 7 7 6 6 5 5 4 3 2 2 2 2 1 1 1 1 1 0 0 0 0 0 1 1
0 0 0 0 0 0 0 0 0 0 0 1 2 5 6 6 5 4 5 7 8 8 7 7 7 7 7 6 6 5 5 4 3 2 2 2 1 1 1 1 1 0 0 0 0 0 0 1 1
0 0 0 0 0 0 0 0 0 0 0 1 3 5 6 5 5 5 4 5 7 7 7 7 6 6 6 6 5 5 5 4 3 2 2 2 1 1 1 1 0 0 0 0 0 0 0 0 1
0 0 0 0 0 0 0 0 0 0 0 1 3 4 5 5 5 5 4 4 5 6 7 7 6 6 6 6 5 5 4 4 3 2 2 1 1 1 1 1 0 0 0 0 0 0 0 0 1
0 0 0 0 0 0 0 0 0 0 0 1 2 3 4 5 5 5 4 4 4 5 6 6 6 6 6 5 5 5 4 4 3 2 2 2 1 1 1 0 0 0 0 0 0 0 0 0 0
0 0 0 0 0 0 0 0 0 0 0 1 1 2 3 4 4 4 4 4 4 4 5 6 6 6 6 5 5 5 5 4 4 3 2 2 1 1 1 0 0 0 0 0 0 0 0 0 0
0 0 0 0 0 0 0 0 0 0 0 0 1 1 2 2 3 3 4 4 3 3 4 4 5 5 6 5 5 5 5 4 4 3 2 2 2 1 1 1 0 0 0 0 0 0 0 0 0
0 0 0 0 0 0 0 0 0 0 0 0 0 1 1 1 2 3 3 3 3 3 4 4 4 5 5 5 5 5 5 4 4 3 3 3 2 2 1 1 1 0 0 0 0 0 0 0 0
0 0 0 0 0 0 0 0 0 0 0 0 0 0 0 1 1 2 3 3 3 3 4 4 4 4 4 4 4 4 4 4 4 3 3 3 3 2 1 1 1 0 0 0 0 0 0 0 0
0 0 0 0 0 0 0 0 0 0 0 0 0 0 0 0 1 2 2 2 2 3 3 3 4 3 4 4 4 4 4 4 4 4 3 2 2 2 1 1 1 0 0 0 0 0 0 0 0
0 0 0 0 0 0 0 0 0 0 0 0 0 0 0 0 0 1 2 2 2 2 3 3 3 3 3 3 3 4 4 4 4 4 3 2 2 1 1 1 1 0 0 0 0 0 0 0 1
0 0 0 0 0 0 0 0 0 0 0 0 0 0 0 0 0 1 1 2 2 2 2 3 3 3 3 3 3 3 3 3 3 3 3 3 2 1 1 1 1 0 0 0 0 0 0 1 1
0 0 0 0 0 0 0 0 0 0 0 0 0 0 0 0 0 0 1 1 2 2 2 3 3 3 3 2 2 2 2 2 3 3 3 3 2 1 1 1 1 1 0 0 0 0 0 1 1
0 0 0 0 0 0 0 0 0 0 0 0 0 0 0 0 0 0 1 1 2 2 2 2 3 3 2 2 2 2 2 2 2 3 3 2 2 2 1 1 1 1 1 0 0 0 0 0 0
0 0 0 0 0 0 0 0 0 0 0 0 0 0 0 0 0 0 1 1 1 2 2 2 2 2 2 2 2 2 1 1 1 2 2 2 2 2 2 1 1 1 1 0 0 0 0 0 0
0 0 0 0 0 0 0 0 0 0 0 0 0 0 0 0 0 0 1 1 1 2 2 2 2 2 2 2 1 1 1 0 0 1 1 1 2 2 2 2 1 1 1 0 0 0 0 0 0
0 0 0 0 0 0 0 0 0 0 0 0 0 0 0 0 0 0 1 1 1 1 2 2 2 2 2 1 1 1 0 0 0 0 0 1 1 1 2 2 2 1 1 0 0 0 0 0 0
0 0 0 0 0 0 0 0 0 0 0 0 0 0 0 0 0 0 0 0 1 1 1 1 1 1 1 1 1 0 0 0 0 0 0 0 0 1 1 2 2 1 1 1 0 0 0 0 0
0 0 0 0 0 0 0 0 0 0 0 0 0 0 0 0 0 0 0 0 0 0 1 1 1 1 1 1 1 0 0 0 0 0 0 0 0 0 1 1 2 2 1 1 0 0 0 0 0
Wind_Speed
5 3 2 4 6 4 4 7 4 3 2 2 2 5 7 5 4 4 3 9 13 13 11 13 14 14 14 13 13 12 12 11 11 11 11 12 12 11 11 11 11 11 11 12 13 13 13 13 13
2 2 4 5 5 3 6 6 6 7 5 2 2 4 5 3 2 6 5 10 15 13 11 12 14 14 14 13 13 12 12 11 11 11 11 11 11 11 11 11 10 11 11 11 12 12 12 12 12
2 1 4 4 4 8 7 5 8 6 3 2 1 3 4 5 4 5 7 14 13 11 9 11 14 14 14 14 13 13 12 11 11 11 11 11 11 11 11 11 10 10 11 11 11 12 11 11 11
3 4 4 3 7 7 6 4 4 2 1 0 3 3 2 1 4 6 12 14 13 10 9 11 14 14 14 13 13 13 12 11 11 10 10 11 10 11 11 10 10 10 10 11 11 11 11 10 10
3 4 2 3 7 6 5 5 3 2 2 1 4 4 1 3 6 12 12 13 13 10 8 10 14 14 14 13 13 12 11 11 11 11 10 10 10 11 10 10 10 10 10 11 11 10 10 10 10
3 3 3 6 8 5 4 5 3 2 3 1 4 5 2 1 7 11 11 11 12 11 9 9 13 12 13 12 12 11 11 11 11 10 10 10 10 10 10 10 9 10 10 10 10 10 9 9 10
4 4 5 6 5 5 5 4 5 4 3 4 6 6 3 2 5 9 10 10 10 10 9 8 8 9 11 11 11 11 10 10 10 10 10 9 9 9 9 9 9 9 9 9 9 9 9 10 10
4 4 4 5 6 6 4 3 3 5 5 3 5 9 6 6 6 9 9 8 8 8 8 7 7 6 6 7 9 10 9 9 9 9 9 9 8 8 8 7 8 8 8 8 8 9 9 10 10
3 3 8 8 6 5 3 2 2 1 3 1 1 5 6 9 10 10 9 7 7 7 6 7 7 6 6 6 8 8 8 8 8 8 9 8 5 4 5 6 7 7 7 8 8 8 9 8 8
4 7 11 5 4 3 2 2 2 1 1 0 2 2 6 9 11 12 11 11 10 9 7 7 7 7 6 6 5 4 4 5 4 4 5 4 3 3 4 6 6 7 6 6 7 7 7 6 4
6 9 6 5 3 2 2 2 1 4 4 5 6 6 8 8 9 10 11 11 10 10 8 7 7 7 6 5 4 3 3 3 3 5 5 4 3 3 3 2 3 3 4 3 4 4 3 3 3
5 7 6 4 3 2 3 2 2 4 6 5 8 10 10 10 10 10 10 10 9 9 8 7 7 7 7 6 4 4 3 3 3 4 5 4 3 3 3 2 2 2 2 2 2 2 3 4 4
8 7 6 6 5 4 4 5 4 6 5 3 5 7 10 10 9 8 8 8 8 9 8 8 7 8 7 6 5 5 4 4 4 4 4 5 4 4 3 3 2 2 2 3 3 3 3 3 4
5 6 7 7 7 5 6 7 5 8 5 4 6 7 8 9 8 6 6 7 8 9 8 8 8 8 7 6 5 5 4 4 4 4 5 5 4 4 4 3 3 3 3 3 3 4 4 3 3
3 5 7 8 7 5 3 8 10 8 4 5 6 7 7 7 7 8 9 9 9 9 9 8 9 8 8 7 7 5 5 5 4 4 5 6 5 5 5 4 3 3 3 3 3 4 3 3 3
2 3 6 7 7 6 7 12 8 5 6 7 6 6 6 6 7 7 7 7 7 8 8 8 8 8 8 7 6 5 5 5 4 4 5 6 6 6 5 4 3 3 3 3 3 3 4 3 3
3 6 8 6 6 5 8 10 6 5 7 7 7 6 6 6 6 6 6 7 8 8 9 8 7 8 7 7 6 5 5 5 4 4 4 5 6 6 5 4 4 4 4 3 3 3 3 4 4
7 7 6 7 5 5 7 8 6 4 6 7 6 6 6 7 7 6 6 6 7 7 8 8 7 7 6 5 4 4 4 4 4 4 5 6 5 6 6 4 5 5 4 3 3 4 3 3 4
5 6 8 7 5 5 9 10 8 6 5 6 6 5 6 7 5 5 6 6 6 6 7 7 7 7 6 5 5 5 5 4 4 4 5 6 6 6 6 5 5 5 4 5 5 4 5 3 4
6 7 6 6 5 5 8 11 8 6 6 6 7 6 6 5 3 4 5 6 7 7 7 7 7 7 7 5 5 4 4 4 4 4 5 6 7 7 6 6 5 5 5 5 5 5 3 2 3
9 8 6 6 5 4 3 6 6 4 3 3 4 4 5 6 6 5 5 5 6 7 7 7 7 7 7 6 4 4 3 2 3 3 4 5 6 6 6 7 6 6 6 6 6 6 5 4 2
9 6 6 6 3 4 5 5 5 4 3 4 3 3 3 3 3 4 4 4 5 6 5 6 7 7 6 7 7 8 6 5 4 4 4 5 6 6 6 6 6 6 5 6 6 5 4 6 4
6 5 6 7 5 4 4 4 5 2 4 5 5 4 3 3 3 3 3 4 4 4 4 5 6 6 6 6 7 7 5 3 3 3 5 5 4 5 6 6 6 6 5 6 6 5 5 4 4
3 2 2 1 2 7 7 5 4 3 6 5 3 3 3 3 3 2 2 2 2 3 3 3 5 5 6 6 6 7 7 5 5 5 5 4 3 3 5 5 5 5 5 6 6 6 6 5 4
1 3 1 1 3 6 4 4 4 3 2 4 4 3 3 3 3 3 2 2 2 3 3 3 4 4 5 6 6 6 7 7 8 6 6 5 4 3 4 4 4 4 4 5 5 5 6 6 6
3 4 5 4 4 2 3 4 3 4 2 3 3 3 3 4 3 3 2 2 2 2 3 3 4 3 4 5 5 5 6 5 5 5 5 5 5 4 4 4 4 4 4 4 4 4 5 5 5
1 3 3 2 1 1 2 1 3 7 7 6 6 6 5 4 3 3 2 2 2 2 2 3 4 3 3 4 4 4 5 5 5 5 4 4 4 4 5 5 5 4 4 4 4 4 4 4 4
1 1 2 2 2 2 1 1 2 4 4 5 5 4 4 4 4 4 3 3 2 1 1 2 2 3 3 3 4 3 4 5 5 5 5 4 4 4 5 5 5 5 4 4 4 3 4 4 4
4 2 1 1 1 2 2 1 2 1 1 2 2 3 3 4 4 4 4 3 3 2 2 2 2 1 2 2 2 3 4 4 4 5 5 5 5 5 6 6 6 5 5 4 4 4 4 5 4
1 1 1 1 1 0 2 1 5 3 2 3 4 3 3 4 4 4 4 5 5 4 3 2 2 1 1 2 2 2 3 4 4 5 5 5 5 5 5 5 5 5 5 5 5 5 5 5 5
Wind_Direction
332 355 63 58 60 63 228 238 229 235 224 221 162 126 125 128 154 166 149 139 137 146 151 148 146 143 138 134 131 127 126 125 122 117 115 116 117 115 115 112 112 112 110 109 107 105 103 101 100
355 20 59 65 105 181 247 235 227 228 214 181 114 109 97 96 106 118 130 143 141 145 147 148 146 144 141 139 137 134 131 130 127 122 119 118 117 117 115 113 112 110 109 110 109 107 104 103 101
347 68 89 94 160 196 220 223 214 233 243 194 106 77 116 138 137 145 153 143 138 141 144 148 147 145 143 142 140 138 136 134 132 127 124 122 120 119 117 115 112 110 110 110 110 110 107 104 101
59 55 65 114 220 224 212 214 196 197 288 178 123 83 82 131 157 146 138 139 136 139 142 148 147 146 144 143 142 140 140 139 137 133 130 126 125 122 118 114 112 112 114 113 112 112 108 104 104
66 89 114 225 235 241 234 236 210 184 200 179 119 116 73 347 116 128 135 139 140 140 144 149 148 148 145 144 143 142 141 141 138 136 133 131 129 126 120 115 113 113 114 115 114 114 112 107 107
77 93 157 223 237 242 240 226 208 217 223 213 127 124 143 101 125 135 137 141 142 142 144 148 147 147 147 146 144 144 143 141 141 140 138 135 131 128 124 119 117 118 117 117 116 115 114 113 114
137 144 200 217 233 240 232 209 191 195 211 209 150 130 147 168 145 135 133 134 137 141 143 145 148 148 146 146 146 144 143 141 141 140 137 130 127 127 126 124 122 121 120 119 120 117 116 115 115
153 149 218 221 216 235 225 195 198 182 208 200 142 148 177 192 150 126 122 127 132 138 143 145 145 143 145 146 145 142 140 139 139 135 128 123 121 122 123 124 122 121 123 124 125 124 117 112 113
130 170 221 214 200 222 212 190 246 188 149 124 144 170 174 150 135 127 125 129 141 146 149 150 148 144 144 147 147 143 140 139 135 131 125 120 117 117 119 121 122 122 123 125 127 123 115 108 109
162 209 223 213 194 198 215 199 206 127 145 165 48 61 124 137 142 147 152 158 162 163 163 158 154 152 149 150 142 141 140 138 133 134 132 124 123 125 124 124 124 121 118 120 118 113 109 100 102
196 218 229 241 241 226 231 253 241 159 215 204 179 161 147 148 150 159 164 167 169 168 166 164 161 157 154 147 148 145 140 139 138 140 139 132 123 124 119 121 117 112 109 102 104 100 99 101 106
227 242 237 245 249 240 237 237 250 213 220 207 181 164 157 163 168 174 175 172 167 166 171 167 164 161 160 154 154 153 150 150 153 156 150 142 138 137 139 134 132 123 119 112 104 110 110 108 112
241 254 250 255 261 254 254 247 244 248 235 195 165 164 170 175 179 182 177 171 166 170 173 171 166 167 165 158 162 161 163 162 160 157 158 153 149 151 149 145 142 137 130 128 126 121 118 114 113
239 255 266 263 258 252 240 258 244 247 212 178 172 183 188 186 181 174 173 173 173 174 175 173 172 172 166 166 165 164 167 163 158 160 160 158 156 156 154 147 146 144 140 139 133 129 125 117 114
256 271 276 253 240 235 214 259 238 235 199 198 194 195 195 199 188 186 186 182 179 176 172 173 174 171 167 168 169 165 169 164 164 165 162 162 159 157 154 150 152 151 141 131 117 112 111 111 110
240 246 254 249 214 214 184 243 246 220 197 213 210 199 198 206 202 198 188 183 178 171 170 175 173 170 170 170 169 165 167 165 168 165 162 164 160 157 152 150 155 150 139 131 127 123 118 113 110
215 228 239 259 215 195 197 241 252 223 196 212 213 206 199 205 212 205 192 184 179 175 171 173 171 170 172 170 168 166 164 167 168 163 163 167 163 159 154 153 155 148 140 135 141 133 130 125 113
217 219 228 234 229 200 218 241 258 239 209 217 215 213 204 203 210 198 188 182 176 173 170 170 169 168 165 161 158 158 160 165 162 164 166 166 164 160 154 151 156 151 145 142 139 137 125 127 124
244 236 245 251 249 214 229 245 251 248 232 222 216 212 213 214 215 190 180 174 164 162 164 168 166 168 162 163 168 170 175 170 167 170 168 166 165 163 157 156 159 157 156 159 150 139 133 123 120
257 251 256 271 269 236 240 252 258 246 231 215 209 211 209 209 203 183 175 173 170 169 170 171 171 168 171 173 172 171 166 169 171 170 169 170 167 167 165 164 167 163 156 157 156 146 139 148 148
252 232 235 252 288 265 229 261 247 259 230 214 211 204 201 196 191 184 177 177 172 173 173 174 173 170 170 164 152 140 129 132 157 171 172 174 169 169 170 173 167 167 166 172 172 165 156 165 177
251 241 245 252 235 247 192 235 253 228 235 231 225 213 197 183 169 166 162 167 175 183 174 169 169 168 168 165 165 164 167 173 184 179 173 173 172 171 173 175 171 170 171 174 180 175 167 163 171
247 263 247 244 223 249 218 204 270 206 224 231 219 209 200 173 157 156 159 160 159 160 160 164 161 163 164 168 171 171 170 170 157 161 167 173 176 176 173 174 174 173 174 177 178 174 169 169 170
261 309 271 223 173 233 215 182 268 223 216 209 205 200 192 158 138 129 123 124 123 125 133 141 155 166 166 167 170 172 167 160 159 166 172 175 175 178 176 171 176 178 176 180 183 179 177 178 170
62 114 121 204 208 234 191 164 242 275 230 190 180 187 166 133 116 104 102 113 118 121 137 143 148 165 172 171 173 176 171 169 172 173 175 172 173 179 184 173 178 178 180 181 177 175 180 179 176
242 177 177 197 208 246 150 188 247 320 346 72 95 122 103 94 98 113 130 128 131 136 145 151 160 165 171 173 178 177 173 174 178 176 173 177 179 181 175 171 175 175 171 175 173 172 177 174 177
226 237 210 173 236 190 189 274 341 16 33 46 54 65 68 64 64 70 88 114 120 123 138 161 165 166 177 174 170 170 175 173 172 169 165 171 170 166 165 168 169 169 168 170 168 171 171 168 176
314 238 106 138 177 208 175 141 320 355 9 28 38 51 49 48 43 42 45 53 75 109 118 122 155 174 175 174 177 176 180 178 170 163 168 168 167 166 164 169 169 168 168 166 162 159 159 161 171
357 9 15 188 216 170 168 257 0 20 23 45 42 66 70 54 43 35 29 27 43 54 74 89 103 137 150 166 179 175 176 170 165 169 173 170 163 165 167 171 168 170 170 168 167 164 159 167 172
29 4 48 151 280 255 146 280 358 19 39 49 47 50 53 55 48 39 34 31 33 34 37 54 72 97 154 171 172 173 167 163 165 171 169 163 162 165 167 166 166 168 168 168 171 173 172 174 179